[[{"header":{"parameterUnit":"m.s-1","parameterCategory":1,"la1":30.2991,"la2":30.254,"lo1":-89.0895,"lo2":-89.0444,"dy":0.0017,"dx":0.0017,"nx":28,"ny":28,"refTime":"2023-07-31T09:00:00:Z","depth":0,"parameterNumber":2,"parameterNumberName":"U-component_of_WINDS"},"data":[0,0,0,0,0,0,0,0,0,0,0,0,0,0,0,0,0,0,0,0,0,0,0,0,0,0,0,0,0,0,0,0,0,0,0,0,0,0,0,0,0,0,0,0,0,0,0,0,0,0,0,0,0,0,0,0,0,0,1.0792,1.0792,0,1.0794,1.0794,1.0794,1.0797,1.0797,1.0797,1.0797,1.0801,1.0801,1.0801,0,0,0,0,0,0,0,0,0,0,0,0,0,1.0791,1.0791,1.0792,1.0792,1.0792,1.0794,1.0794,1.0794,1.0797,1.0797,1.0797,1.0797,1.0801,1.0801,1.0801,0,0,0,0,0,0,0,0,0,0,0,0,0,1.0792,1.0791,1.0792,1.0794,1.0794,1.0794,1.0794,1.0794,1.0797,1.0797,1.0797,1.0797,1.0801,1.0801,1.0801,1.08,0,0,1.0801,1.0801,0,0,0,0,0,0,0,0,1.0792,1.0792,1.0793,1.0793,1.0794,1.0795,1.0795,1.0796,1.0797,1.0796,1.0797,1.0797,1.0799,1.0799,1.0799,1.08,1.08,1.0801,1.0801,1.0801,1.0801,0,0,0,0,0,0,0,1.0792,1.0792,1.0793,1.0793,1.0794,1.0794,1.0795,1.0795,1.0797,1.0796,1.0796,1.0796,1.0799,1.0799,1.08,1.08,1.0801,1.0801,1.0801,1.0801,1.0799,1.0798,0,0,0,0,0,0,1.0791,1.0792,1.0793,1.0793,1.0793,1.0794,1.0795,1.0795,1.0797,1.0797,1.0796,1.0797,1.0799,1.08,1.08,1.0798,1.0801,1.0801,1.0801,1.0799,1.0799,1.0798,0,0,0,0,0,0,1.0791,1.0791,1.0792,1.0792,1.0792,1.0794,1.0794,1.0795,1.0795,1.0797,1.0798,1.0796,1.0799,1.08,1.0799,1.0798,1.0801,1.0801,1.0799,1.0799,1.0798,1.0795,0,0,0,0,0,0,1.0791,1.0791,1.0791,1.0792,1.0792,1.0792,1.0794,1.0795,1.0795,1.0795,1.0797,1.0798,1.0799,1.0799,1.0799,1.0798,1.0801,1.0799,1.0799,1.0799,1.0795,1.0795,1.0794,0,0,0,0,0,1.0791,1.079,1.0791,1.0791,1.0792,1.0792,1.0792,1.0794,1.0795,1.0794,1.0796,1.0798,1.0798,1.0799,1.0799,1.0798,1.0799,1.0799,1.0799,1.0795,1.0795,1.0794,0,0,0,0,0,0,1.079,1.0791,1.0791,1.0791,1.0791,1.0792,1.0792,1.0793,1.0794,1.0794,1.0796,1.0797,1.0796,1.0797,1.0798,1.0797,1.0799,1.0799,1.0796,1.0796,1.0795,1.0795,1.0801,0,0,0,0,0,1.0789,1.0789,1.079,1.0789,1.0789,1.079,1.0791,1.0792,1.0792,1.0793,1.0794,1.0795,1.0795,1.0795,1.0796,1.0795,1.0795,1.0794,1.0794,1.0793,1.0793,1.0792,1.0792,1.0798,1.0798,1.0798,0,0,1.0788,1.0789,1.0788,1.0789,1.0789,1.0789,1.0791,1.0791,1.079,1.0793,1.0793,1.0793,1.0794,1.0794,1.0793,1.0795,1.0792,1.0793,1.0793,1.0793,1.0792,1.0792,1.0791,1.0797,1.0797,1.0798,0,0,1.0786,1.0787,1.0786,1.0786,1.0786,1.0787,1.0787,1.0788,1.0788,1.0788,1.0789,1.0789,1.079,1.079,1.079,1.0787,1.0789,1.0787,1.0785,1.0784,1.0784,1.0783,1.0782,1.0782,1.0787,1.0787,1.0787,0,1.0786,1.0785,1.0786,1.0785,1.0785,1.0786,1.0785,1.0785,1.0786,1.0786,1.0787,1.0787,1.0788,1.0787,1.0786,1.0786,1.0786,1.0788,1.0784,1.0783,1.0783,1.0782,1.0781,1.0787,1.0787,1.0787,1.0787,0,1.0784,1.0783,1.0782,1.0782,1.0782,1.0781,1.0782,1.0781,1.0782,1.0782,1.0781,1.0782,1.0783,1.0782,1.0783,1.0781,1.0782,1.0783,1.0785,1.0782,1.0781,1.0781,1.0787,1.0787,1.0787,1.0787,0,0,1.0782,1.0781,1.0781,1.078,1.078,1.078,1.0779,1.0778,1.0778,1.0778,1.0777,1.0777,1.0778,1.0778,1.0779,1.0778,1.0775,1.0779,1.078,1.0779,1.0773,1.0772,1.0771,1.0776,1.0776,1.0776,1.0772,0,1.0781,1.0779,1.0779,1.0777,1.0776,1.0777,1.0776,1.0775,1.0775,1.0775,1.0775,1.0775,1.0776,1.0776,1.0775,1.0776,1.0774,1.0776,1.0775,1.0775,1.0776,1.0771,1.077,1.0767,1.0772,1.0772,1.0772,0,1.0779,1.0778,1.0776,1.0775,1.0774,1.0774,1.0773,1.0772,1.0771,1.0772,1.0771,1.0772,1.0771,1.0772,1.0771,1.0772,1.0772,1.0772,1.0772,1.0772,1.0774,1.0771,1.0766,1.0766,1.0771,1.0771,1.0771,0,1.0778,1.0776,1.0775,1.0774,1.0773,1.0772,1.0772,1.0771,1.077,1.077,1.0769,1.0769,1.0768,1.0768,1.0768,1.0769,1.0766,1.0768,1.0766,1.0766,1.0767,1.0767,1.0762,1.0766,1.0766,1.0766,1.0766,0,1.0777,1.0776,1.0774,1.0773,1.0771,1.0771,1.0769,1.0769,1.0768,1.0767,1.0768,1.0767,1.0767,1.0766,1.0766,1.0765,1.0765,1.0765,1.0765,1.0765,1.0765,1.0765,1.0766,1.0766,1.0766,1.0766,1.0766,0,1.0776,1.0775,1.0773,1.0771,1.0771,1.077,1.0768,1.0767,1.0767,1.0766,1.0765,1.0765,1.0763,1.0763,1.0762,1.0763,1.0761,1.0761,1.0761,1.0761,1.0759,1.076,1.0755,1.0754,1.0758,1.0758,1.0758,0,1.0776,1.0774,1.0772,1.0771,1.077,1.0769,1.0768,1.0767,1.0766,1.0764,1.0763,1.0762,1.0761,1.0759,1.0759,1.0758,1.0758,1.0756,1.0758,1.0758,1.0758,1.0758,1.0758,1.0756,1.0756,1.0756,1.0756,0,1.0775,1.0774,1.0772,1.077,1.0768,1.0767,1.0765,1.0765,1.0764,1.0762,1.0761,1.076,1.0758,1.0756,1.0755,1.0755,1.0755,1.0755,1.0755,1.0755,1.0755,1.0755,1.076,1.0756,1.0756,1.0756,1.0756,1.0756,1.0774,1.0773,1.077,1.0768,1.0767,1.0765,1.0764,1.0763,1.0761,1.0759,1.0759,1.0757,1.0755,1.0753,1.0753,1.0751,1.0752,1.0751,1.0751,1.0751,1.0751,1.0755,1.0751,1.0751,1.0751,1.0751,1.0751,0,1.0773,1.0771,1.0769,1.0767,1.0765,1.0764,1.0762,1.0761,1.0759,1.0757,1.0756,1.0753,1.0752,1.0751,1.0749,1.0748,1.0748,1.0748,1.0748,1.0748,1.0751,1.0751,1.0747,1.0747,1.0747,1.0747,1.0747,1.0747,1.0772,1.077,1.0769,1.0765,1.0763,1.0761,1.076,1.0758,1.0757,1.0754,1.0752,1.0751,1.075,1.0748,1.0746,1.0746,1.0745,1.0744,1.0744,1.0747,1.0748,1.0748,1.0749,1.0744,1.0744,1.0742,1.0742,1.0742]},{"header":{"parameterUnit":"m.s-1","parameterCategory":1,"la1":30.2991,"la2":30.254,"lo1":-89.0895,"lo2":-89.0444,"dy":0.0017,"dx":0.0017,"nx":28,"ny":28,"refTime":"2023-07-31T09:00:00:Z","depth":0,"parameterNumber":3,"parameterNumberName":"V-component_of_WINDS"},"data":[0,0,0,0,0,0,0,0,0,0,0,0,0,0,0,0,0,0,0,0,0,0,0,0,0,0,0,0,0,0,0,0,0,0,0,0,0,0,0,0,0,0,0,0,0,0,0,0,0,0,0,0,0,0,0,0,0,0,0.1092,0.1092,0,0.1058,0.1058,0.1057,0.1079,0.108,0.1081,0.1082,0.1047,0.1045,0.1044,0,0,0,0,0,0,0,0,0,0,0,0,0,0.1177,0.1176,0.1093,0.1092,0.1092,0.1058,0.1058,0.1057,0.1078,0.108,0.1081,0.1082,0.1048,0.1046,0.1043,0,0,0,0,0,0,0,0,0,0,0,0,0,0.1141,0.1175,0.1093,0.1098,0.1098,0.1058,0.1058,0.1057,0.1078,0.108,0.1081,0.1083,0.1049,0.1046,0.1043,0.0996,0,0,0.1035,0.1033,0,0,0,0,0,0,0,0,0.1143,0.1138,0.1098,0.1098,0.1098,0.1074,0.1075,0.1036,0.1078,0.1086,0.1082,0.1083,0.1055,0.1052,0.1042,0.0994,0.0993,0.1034,0.1033,0.1032,0.1031,0,0,0,0,0,0,0,0.1146,0.114,0.1079,0.1097,0.1097,0.1103,0.1099,0.1068,0.1062,0.1085,0.1087,0.1082,0.1055,0.1045,0.1041,0.0992,0.1035,0.1032,0.103,0.1029,0.0902,0.0901,0,0,0,0,0,0,0.1148,0.1142,0.108,0.1078,0.1125,0.11,0.1096,0.108,0.1063,0.1062,0.1081,0.1083,0.1049,0.1045,0.104,0.0983,0.1032,0.1029,0.1027,0.0904,0.0902,0.09,0,0,0,0,0,0,0.115,0.1142,0.1081,0.111,0.1103,0.1097,0.1079,0.1079,0.1068,0.106,0.1059,0.1071,0.105,0.1044,0.1006,0.0982,0.1028,0.1025,0.0906,0.0903,0.0901,0.0868,0,0,0,0,0,0,0.1152,0.1143,0.1125,0.111,0.1101,0.1048,0.1077,0.1077,0.1063,0.1066,0.105,0.1049,0.105,0.101,0.1004,0.0979,0.1023,0.0908,0.0905,0.0902,0.0871,0.0864,0.0859,0,0,0,0,0,0.1155,0.1117,0.1124,0.1116,0.1078,0.1046,0.1042,0.1044,0.1061,0.1043,0.1037,0.1049,0.0986,0.1006,0.0999,0.0973,0.091,0.0906,0.0902,0.0874,0.0866,0.0859,0,0,0,0,0,0,0.113,0.1115,0.1122,0.1078,0.1063,0.105,0.1027,0.1035,0.1016,0.1019,0.1023,0.1019,0.0979,0.0973,0.0996,0.0925,0.095,0.0945,0.0931,0.0924,0.0918,0.092,0.1021,0,0,0,0,0,0.1119,0.1094,0.1083,0.1045,0.1037,0.1033,0.1019,0.1022,0.1007,0.1001,0.0993,0.0978,0.0954,0.0939,0.0917,0.087,0.0866,0.0849,0.0842,0.0837,0.0832,0.0806,0.0798,0.0888,0.0888,0.0888,0,0,0.1097,0.1086,0.107,0.104,0.1029,0.1002,0.1028,0.0999,0.098,0.0997,0.096,0.0953,0.0937,0.0894,0.0875,0.0887,0.0807,0.0832,0.0829,0.0826,0.0801,0.0793,0.0785,0.0885,0.0885,0.0886,0,0,0.1043,0.1033,0.0999,0.0987,0.0969,0.0967,0.0959,0.0944,0.094,0.0903,0.0915,0.0892,0.0851,0.0839,0.0827,0.0767,0.0777,0.076,0.0727,0.0702,0.0695,0.0688,0.0666,0.0658,0.0755,0.0755,0.0755,0,0.1018,0.0979,0.0982,0.0951,0.0938,0.0951,0.0917,0.0905,0.0882,0.0872,0.0886,0.0834,0.0824,0.0778,0.0763,0.0754,0.0744,0.0761,0.0695,0.0689,0.0683,0.0662,0.0654,0.0753,0.0753,0.0753,0.0753,0,0.0948,0.0921,0.0896,0.0872,0.0855,0.0823,0.0821,0.0804,0.0808,0.0804,0.0766,0.0754,0.0729,0.0719,0.0723,0.0673,0.0681,0.0695,0.072,0.0673,0.0652,0.0644,0.075,0.075,0.0751,0.0752,0,0,0.0878,0.0854,0.0845,0.0834,0.0815,0.0794,0.0762,0.0737,0.0722,0.0705,0.0679,0.0644,0.0656,0.0643,0.0646,0.0623,0.0575,0.064,0.064,0.0628,0.0518,0.0507,0.0497,0.0582,0.058,0.0579,0.0519,0,0.0822,0.0767,0.0768,0.0717,0.0691,0.0702,0.0675,0.066,0.0655,0.0633,0.0628,0.0602,0.0622,0.0613,0.0592,0.0585,0.0553,0.059,0.0557,0.0556,0.056,0.0487,0.0475,0.0419,0.0511,0.051,0.0509,0,0.075,0.0729,0.0675,0.0658,0.0647,0.0623,0.0599,0.0578,0.0561,0.0559,0.0543,0.0549,0.0517,0.0543,0.0499,0.0524,0.0511,0.0505,0.0503,0.05,0.0529,0.048,0.0401,0.0392,0.0497,0.0498,0.0499,0,0.0703,0.0661,0.0623,0.0613,0.0593,0.0575,0.0566,0.0551,0.0535,0.0515,0.0505,0.0482,0.0469,0.045,0.045,0.0469,0.0404,0.0431,0.0401,0.0401,0.0387,0.0388,0.0303,0.0379,0.038,0.038,0.038,0,0.064,0.0606,0.0602,0.0578,0.054,0.0542,0.0504,0.0497,0.0483,0.0458,0.0467,0.0444,0.0445,0.0421,0.0421,0.0383,0.0377,0.0375,0.0375,0.0373,0.0373,0.0364,0.0368,0.0377,0.0378,0.0378,0.0379,0,0.0581,0.0577,0.0536,0.0519,0.0515,0.0487,0.0474,0.0451,0.0447,0.0415,0.0408,0.0401,0.0373,0.0371,0.0339,0.0339,0.0293,0.0298,0.0298,0.0299,0.0269,0.0272,0.0175,0.0162,0.0248,0.0247,0.0246,0,0.054,0.0514,0.0495,0.0479,0.0468,0.0442,0.0426,0.0426,0.0409,0.0387,0.0367,0.034,0.0319,0.0274,0.0266,0.0241,0.0245,0.0213,0.0242,0.024,0.0243,0.0245,0.0241,0.0207,0.0206,0.0206,0.0205,0,0.0469,0.0468,0.0444,0.0419,0.0399,0.038,0.0362,0.0348,0.0346,0.0326,0.0298,0.0281,0.0247,0.022,0.0196,0.0187,0.0195,0.0196,0.0188,0.0186,0.0186,0.0184,0.0282,0.0198,0.0199,0.0199,0.02,0.02,0.0418,0.0394,0.0377,0.035,0.0336,0.0318,0.0296,0.0288,0.0264,0.0236,0.0238,0.0206,0.0189,0.0157,0.0146,0.0121,0.0132,0.012,0.0117,0.0114,0.011,0.0191,0.0117,0.0117,0.0117,0.0117,0.0117,0,0.0346,0.0335,0.031,0.0283,0.0262,0.0271,0.0251,0.0233,0.0204,0.0187,0.0165,0.0132,0.0105,0.0095,0.0069,0.0051,0.0054,0.0044,0.0045,0.0042,0.0103,0.0112,0.0041,0.0041,0.0041,0.0041,0.0041,0.0041,0.0306,0.0267,0.0263,0.0217,0.0207,0.0175,0.0162,0.0146,0.0132,0.0094,0.0072,0.0065,0.0051,0.0024,-0.0001,-0.0003,-0.0013,-0.0025,-0.0026,0.003,0.0038,0.0045,0.0054,-0.0027,-0.0028,-0.0085,-0.0085,-0.0086]}]]